This demonstration page uses our WeatherBlox Daily Observations layout. Learn more.

Left ArrowRight Arrow

44.8408, -93.29828

Hourly Observations for May 8, 2015

Temp ( °F °C ) Dew Point ( °F °C ) Humidity (%) Winds ( mph kmh ) Pressure ( in mb ) Visibility ( mi km ) Precip ( " mm )
12:18 am 00:18 Cloudy 63 17 59 15 88 88 W 10 17 29.80 1009 8 13 0.00 0.00
12:53 am 00:53 Cloudy 62 16.7 58 14.4 86 86 WNW 10 17 29.78 1009 8 13 0.00 0.00
12:56 am 00:56 Cloudy 63 17 57 14 83 83 W 10 17 29.80 1009 8 13 0.00 0.00
1:53 am 01:53 Cloudy 61 16 57 14 88 88 W 10 17 29.80 1009 7 11 0.00 0.00
1:55 am 01:55 Cloudy 59 15 57 13.9 93 93 W 12 19 29.83 1010 7 11 0.00 0.00
2:53 am 02:53 Cloudy 55 12.8 53 11.7 93 93 NW 13 20 29.83 1010 8 13 0.00 0.03
3:53 am 03:53 Cloudy 52 11.1 49 9.4 89 89 NW 9 15 29.85 1011 10 16 0.02 0.51
3:56 am 03:56 Cloudy 52 11 48 9 88 88 NNW 10 17 29.88 1012 10 16 0.00 0.00
4:53 am 04:53 Cloudy 50 10 47 8.3 89 89 NW 12 19 29.88 1012 10 16 0.00 0.00
5:53 am 05:53 Cloudy 49 9.4 44 6.7 83 83 WNW 10 17 29.91 1013 10 16 0.00 0.00
6:53 am 06:53 Cloudy 49 9.4 44 6.7 83 83 NW 10 17 29.93 1014 9 14 0.00 0.00
7:05 am 07:05 Cloudy 50 10 44 6.7 80 80 NW 9 15 29.97 1015 9 14 0.00 0.00
7:53 am 07:53 Cloudy 50 10 44 6.7 80 80 WNW 9 15 29.96 1015 10 16 0.00 0.00
8:05 am 08:05 Cloudy 49 9.4 44 6.7 83 83 NW 13 20 29.97 1015 10 16 0.00 0.00
8:40 am 08:40 Cloudy 50 10 44 6.7 80 80 NW 9 15 29.97 1015 10 16 0.00 0.00
8:53 am 08:53 Cloudy 50 10 44 6.7 80 80 WNW 13 20 29.98 1015 10 16 0.00 0.00
8:58 am 08:58 Cloudy 50 10 43 6 76 76 NW 9 15 29.97 1015 10 16 0.00 0.00
9:53 am 09:53 Cloudy 51 10.6 44 6.7 77 77 NW 8 13 29.99 1016 9 14 0.00 0.00
10:53 am 10:53 Cloudy 52 11.1 44 6.7 75 75 WNW 10 17 30.01 1016 10 16 0.00 0.00
11:53 am 11:53 Cloudy 54 12.2 45 7.2 72 72 WNW 12 19 30.02 1017 10 16 0.00 0.00
12:53 pm 12:53 Cloudy 54 12.2 45 7.2 72 72 WNW 10 17 30.03 1017 9 14 0.00 0.00
1:53 pm 13:53 Cloudy 55 12.8 45 7.2 69 69 WNW 10 17 30.02 1017 9 14 0.00 0.00
2:43 pm 14:43 Cloudy 56 13.3 45 7.2 67 67 NNW 10 17 30.03 1017 9 14 0.00 0.00
2:53 pm 14:53 Cloudy 57 13.9 45 7.2 64 64 NW 7 11 30.03 1017 9 14 0.00 0.00
3:53 pm 15:53 Mostly Cloudy 58 14.4 45 7.2 62 62 NNW 7 11 30.03 1017 9 14 0.00 0.00
4:39 pm 16:39 Mostly Cloudy 60 15.6 45 7.2 58 58 VRB 7 11 29.97 1015 10 16 0.00 0.00
4:53 pm 16:53 Partly Cloudy 60 15.6 45 7.2 58 58 VRB 6 9 30.01 1016 10 16 0.00 0.00
5:35 pm 17:35 Partly Cloudy 60 15.6 43 6.1 53 53 NW 10 17 29.97 1015 10 16 0.00 0.00
5:53 pm 17:53 Mostly Sunny 60 15.6 44 6.7 56 56 VRB 7 11 30.01 1016 10 16 0.00 0.00
6:53 pm 18:53 Mostly Sunny 60 15.6 43 6.1 53 53 N 6 9 30.02 1017 10 16 0.00 0.00
7:53 pm 19:53 Mostly Sunny 58 14.4 42 5.6 56 56 NNW 6 9 30.05 1018 10 16 0.00 0.00
8:53 pm 20:53 Mostly Clear 56 13.3 41 5 57 57 NNW 7 11 30.06 1018 10 16 0.00 0.00
9:53 pm 21:53 Partly Cloudy 54 12.2 43 6.1 67 67 NNE 7 11 30.08 1019 10 16 0.00 0.00
10:53 pm 22:53 Mostly Clear 52 11.1 43 6.1 72 72 N 5 7 30.09 1019 10 16 0.00 0.00
11:53 pm 23:53 Mostly Clear 51 10.6 41 5 69 69 N 6 9 30.09 1019 10 16 0.00 0.00

Powered by AerisWeather